Location: *
(46.1333°S, 161.2167°W)
Time: 04:10:50
(UTC+00:00)

ATLAS 2AS CENTAUR R/B - Pass Details

Date: 15 July 2020
Orbit: 930 x 1282 km, 63.7° (Epoch: 19 July)

Event Time Altitude Azimuth Distance (km) Brightness Sun altitude
Exits shadow 16:04:39 14° 197° (SSW) 2,467 4.4 -23.1°
Maximum altitude 16:07:13 17° 170° (S) 2,292 4.4 -22.7°
Drops below altitude 10° 16:11:23 10° 130° (SE) 2,832 5.4 -21.9°
Sets 16:15:13 0° 111° (ESE) 3,851 6.6 -21.3°
